CSN1213 ZGHA-ZSHC

Flight info

Callsign CSN1213
Flight time 1h 30m
Altitude 41100
Route OPORU W56 OBDON B213 WHA R343 UPLEL W95 SAPIN A470 IGRAT
Aircraft A359/H-SDE2E3GHIJ3J4J5LM1ORWXY/LB1D1

Departure

Time 2026-05-04 13:25
Airport Changsha Huanghua International Airport (ZGHA)

Arrival

Time 2026-05-04 14:55
Airport Hangzhou Xiaoshan International Airport (ZSHC)
Time Latitude Longitude Altitude Speed Heading
2026-05-04 12:34 28.19483 113.21577 227 ft 0 kts 296°
2026-05-04 13:00 28.19478 113.21588 227 ft 2 kts 295°
2026-05-04 13:00 28.19472 113.21603 227 ft 2 kts 296°
2026-05-04 13:00 28.19465 113.21619 227 ft 2 kts 296°
2026-05-04 13:01 28.19459 113.21634 227 ft 2 kts 296°
2026-05-04 13:01 28.19451 113.21648 227 ft 2 kts 319°
2026-05-04 13:01 28.19438 113.21657 227 ft 2 kts 344°
2026-05-04 13:01 28.19430 113.21658 227 ft 0 kts 358°
2026-05-04 13:02 28.19426 113.21659 227 ft 0 kts 358°
2026-05-04 13:05 28.19427 113.21659 227 ft 0 kts 357°
2026-05-04 13:05 28.19432 113.21658 227 ft 1 kts 356°
2026-05-04 13:06 28.19445 113.21658 227 ft 2 kts 356°
2026-05-04 13:06 28.19494 113.21654 227 ft 12 kts 356°
2026-05-04 13:06 28.19600 113.21646 227 ft 16 kts 356°
2026-05-04 13:06 28.19710 113.21641 227 ft 13 kts 356°
2026-05-04 13:07 28.19751 113.21661 227 ft 5 kts 63°
2026-05-04 13:07 28.19760 113.21704 227 ft 5 kts 81°
2026-05-04 13:07 28.19792 113.21730 227 ft 6 kts 10°
2026-05-04 13:07 28.19847 113.21731 227 ft 9 kts 357°
2026-05-04 13:08 28.19935 113.21725 227 ft 14 kts 357°
2026-05-04 13:08 28.20031 113.21719 227 ft 14 kts 356°
2026-05-04 13:08 28.20130 113.21709 227 ft 14 kts 357°
2026-05-04 13:08 28.20229 113.21705 227 ft 14 kts 355°
2026-05-04 13:09 28.20327 113.21700 227 ft 14 kts 359°
2026-05-04 13:09 28.20424 113.21680 227 ft 13 kts 340°
2026-05-04 13:09 28.20509 113.21677 227 ft 12 kts
2026-05-04 13:09 28.20575 113.21692 227 ft 6 kts 22°
2026-05-04 13:10 28.20597 113.21721 227 ft 4 kts 68°
2026-05-04 13:10 28.20604 113.21768 227 ft 7 kts 85°
2026-05-04 13:10 28.20605 113.21844 227 ft 10 kts 93°
2026-05-04 13:10 28.20604 113.21925 227 ft 10 kts 86°
2026-05-04 13:11 28.20611 113.22015 227 ft 11 kts 84°
2026-05-04 13:11 28.20658 113.22061 227 ft 9 kts
2026-05-04 13:11 28.20727 113.22059 227 ft 9 kts 358°
2026-05-04 13:11 28.20796 113.22057 227 ft 10 kts 359°
2026-05-04 13:12 28.20865 113.22064 227 ft 9 kts 27°
2026-05-04 13:12 28.20893 113.22128 227 ft 9 kts 83°
2026-05-04 13:12 28.20891 113.22199 227 ft 9 kts 108°
2026-05-04 13:12 28.20846 113.22242 227 ft 8 kts 162°
2026-05-04 13:13 28.20828 113.22245 227 ft 0 kts 176°
2026-05-04 13:13 28.20826 113.22245 227 ft 0 kts 177°
2026-05-04 13:14 28.20823 113.22245 227 ft 0 kts 178°
2026-05-04 13:14 28.20822 113.22245 227 ft 0 kts 177°
2026-05-04 13:14 28.20782 113.22248 227 ft 14 kts 176°
2026-05-04 13:15 28.20602 113.22259 227 ft 41 kts 176°
2026-05-04 13:15 28.20093 113.22292 227 ft 103 kts 176°
2026-05-04 13:15 28.19249 113.22343 227 ft 104 kts 176°
2026-05-04 13:15 28.18950 113.22360 227 ft 0 kts 186°
2026-05-04 13:16 28.18915 113.22347 227 ft 13 kts 198°
2026-05-04 13:16 28.18780 113.22290 227 ft 10 kts 203°
2026-05-04 13:16 28.18735 113.22246 227 ft 8 kts 251°
2026-05-04 13:16 28.18746 113.22195 227 ft 6 kts 316°
2026-05-04 13:17 28.18780 113.22181 227 ft 4 kts 353°
2026-05-04 13:17 28.18813 113.22178 227 ft 4 kts 356°
2026-05-04 13:17 28.18840 113.22176 227 ft 3 kts 356°
2026-05-04 13:17 28.18860 113.22175 227 ft 2 kts 356°
2026-05-04 13:18 28.18874 113.22173 227 ft 1 kts 357°
2026-05-04 13:18 28.18880 113.22173 227 ft 0 kts 356°
2026-05-04 13:18 28.18882 113.22173 227 ft 0 kts 356°
2026-05-04 13:18 28.18884 113.22173 227 ft 0 kts 355°
2026-05-04 13:19 28.18886 113.22173 227 ft 0 kts 355°
2026-05-04 13:19 28.18887 113.22173 227 ft 0 kts 355°
2026-05-04 13:19 28.18892 113.22173 227 ft 0 kts 357°
2026-05-04 13:19 28.18898 113.22172 227 ft 0 kts 357°
2026-05-04 13:20 28.18937 113.22169 227 ft 13 kts 356°
2026-05-04 13:20 28.19058 113.22162 227 ft 19 kts 356°
2026-05-04 13:20 28.19194 113.22154 227 ft 19 kts 356°
2026-05-04 13:20 28.19329 113.22144 227 ft 19 kts 357°
2026-05-04 13:21 28.19466 113.22136 227 ft 19 kts 356°
2026-05-04 13:21 28.19603 113.22127 227 ft 19 kts 356°
2026-05-04 13:21 28.20512 113.22073 227 ft 19 kts 357°
2026-05-04 13:21 28.20650 113.22064 227 ft 20 kts 356°
2026-05-04 13:22 28.20799 113.22055 227 ft 21 kts 356°
2026-05-04 13:22 28.20854 113.22055 227 ft 6 kts 11°
2026-05-04 13:22 28.20890 113.22104 227 ft 10 kts 78°
2026-05-04 13:22 28.20893 113.22199 227 ft 12 kts 105°
2026-05-04 13:23 28.20828 113.22244 227 ft 12 kts 173°
2026-05-04 13:23 28.20793 113.22247 227 ft 6 kts 176°
2026-05-04 13:23 28.20643 113.22257 227 ft 38 kts 176°
2026-05-04 13:23 28.20216 113.22285 227 ft 90 kts 177°
2026-05-04 13:24 28.19398 113.22334 228 ft 145 kts 176°
2026-05-04 13:24 28.18223 113.22408 230 ft 191 kts 177°
2026-05-04 13:24 28.16822 113.22486 508 ft 210 kts 178°
2026-05-04 13:25 28.14238 113.22570 1161 ft 234 kts 179°
2026-05-04 13:25 28.12599 113.22586 1513 ft 236 kts 179°
2026-05-04 13:25 28.10969 113.22612 1880 ft 240 kts 179°
2026-05-04 13:25 28.09297 113.22650 2456 ft 241 kts 179°
2026-05-04 13:26 28.07065 113.22759 3224 ft 242 kts 177°
2026-05-04 13:26 28.05391 113.22846 3781 ft 244 kts 176°
2026-05-04 13:26 28.04272 113.22917 4132 ft 245 kts 176°
2026-05-04 13:26 28.02581 113.23029 4665 ft 247 kts 176°
2026-05-04 13:27 28.00294 113.23286 5364 ft 250 kts 160°
2026-05-04 13:27 27.98882 113.24404 5834 ft 252 kts 123°
2026-05-04 13:27 27.98332 113.26246 6300 ft 254 kts 90°
2026-05-04 13:27 27.98357 113.27582 6653 ft 255 kts 87°
2026-05-04 13:28 27.98434 113.29612 7142 ft 259 kts 88°
2026-05-04 13:28 27.98485 113.31654 7628 ft 262 kts 89°
2026-05-04 13:28 27.98515 113.34406 8286 ft 266 kts 89°
2026-05-04 13:28 27.98525 113.36515 8779 ft 269 kts 89°
2026-05-04 13:29 27.98839 113.38609 9066 ft 279 kts 63°
2026-05-04 13:29 28.00079 113.40288 9359 ft 287 kts 34°
2026-05-04 13:29 28.01776 113.41460 9896 ft 287 kts 30°
2026-05-04 13:29 28.02917 113.42213 10225 ft 289 kts 30°
2026-05-04 13:30 28.04693 113.43398 10493 ft 300 kts 31°
2026-05-04 13:30 28.07247 113.44803 10803 ft 316 kts 17°
2026-05-04 13:30 28.09440 113.45303 11032 ft 328 kts
2026-05-04 13:30 28.11741 113.45497 11270 ft 339 kts
2026-05-04 13:31 28.14142 113.45644 11501 ft 350 kts
2026-05-04 13:31 28.16589 113.45795 11831 ft 358 kts
2026-05-04 13:31 28.19055 113.45959 12308 ft 361 kts
2026-05-04 13:31 28.21562 113.46135 12805 ft 363 kts
2026-05-04 13:32 28.24102 113.46318 13285 ft 365 kts
2026-05-04 13:32 28.26635 113.46502 13747 ft 368 kts
2026-05-04 13:32 28.29176 113.46687 14199 ft 370 kts
2026-05-04 13:32 28.31753 113.46874 14644 ft 372 kts
2026-05-04 13:33 28.34335 113.47062 15075 ft 375 kts
2026-05-04 13:33 28.36943 113.47251 15499 ft 377 kts
2026-05-04 13:33 28.39556 113.47441 15915 ft 380 kts
2026-05-04 13:33 28.42176 113.47626 16324 ft 382 kts
2026-05-04 13:34 28.44823 113.47810 16728 ft 384 kts
2026-05-04 13:34 28.47488 113.47997 17126 ft 386 kts
2026-05-04 13:34 28.50173 113.48186 17518 ft 389 kts
2026-05-04 13:34 28.52874 113.48378 17903 ft 391 kts
2026-05-04 13:35 28.55588 113.48573 18281 ft 393 kts
2026-05-04 13:35 28.61042 113.48965 19015 ft 397 kts
2026-05-04 13:35 28.63792 113.49164 19372 ft 399 kts
2026-05-04 13:36 28.66577 113.49366 19649 ft 402 kts
2026-05-04 13:36 28.69373 113.49570 19680 ft 402 kts
2026-05-04 13:36 28.72130 113.49770 19710 ft 403 kts
2026-05-04 13:36 28.74971 113.49974 19988 ft 406 kts
2026-05-04 13:37 28.77759 113.50173 20399 ft 406 kts
2026-05-04 13:37 28.80575 113.50369 20762 ft 408 kts
2026-05-04 13:37 28.83381 113.50565 21091 ft 410 kts
2026-05-04 13:37 28.85275 113.50700 21308 ft 411 kts
2026-05-04 13:38 28.89054 113.50968 21733 ft 414 kts
2026-05-04 13:38 28.91963 113.51177 22050 ft 415 kts
2026-05-04 13:38 28.94825 113.51382 22344 ft 418 kts
2026-05-04 13:38 29.27494 113.53752 25350 ft 420 kts
2026-05-04 13:39 29.30629 113.53995 25458 ft 426 kts
2026-05-04 13:39 29.33583 113.54244 25568 ft 431 kts
2026-05-04 13:39 29.36594 113.54504 25676 ft 435 kts
2026-05-04 13:39 29.39622 113.54768 25804 ft 439 kts
2026-05-04 13:40 29.42677 113.55032 25998 ft 442 kts
2026-05-04 13:40 29.45729 113.55298 26219 ft 443 kts
2026-05-04 13:40 29.48811 113.55566 26437 ft 444 kts
2026-05-04 13:40 29.51826 113.55828 26643 ft 446 kts
2026-05-04 13:41 29.54950 113.56100 26846 ft 447 kts
2026-05-04 13:41 29.58030 113.56368 27040 ft 448 kts
2026-05-04 13:41 29.61106 113.56636 27229 ft 450 kts
2026-05-04 13:42 29.67340 113.57181 27599 ft 452 kts
2026-05-04 13:42 29.70470 113.57455 27778 ft 453 kts
2026-05-04 13:42 29.73612 113.57732 27952 ft 455 kts
2026-05-04 13:42 29.76751 113.58008 28122 ft 456 kts
2026-05-04 13:43 29.79943 113.58291 28290 ft 457 kts
2026-05-04 13:43 29.83106 113.58571 28452 ft 458 kts
2026-05-04 13:43 29.86239 113.58846 28609 ft 459 kts
2026-05-04 13:43 29.89438 113.59146 28763 ft 460 kts
2026-05-04 13:44 29.92585 113.59675 28913 ft 461 kts 11°
2026-05-04 13:44 29.95689 113.60513 29059 ft 462 kts 15°
2026-05-04 13:44 29.98754 113.61678 29200 ft 463 kts 21°
2026-05-04 13:44 30.01700 113.63072 29338 ft 464 kts 23°
2026-05-04 13:45 30.04660 113.64555 29472 ft 465 kts 23°
2026-05-04 13:45 30.07635 113.66066 29601 ft 466 kts 24°
2026-05-04 13:45 30.10580 113.67569 29728 ft 467 kts 24°
2026-05-04 13:45 30.13574 113.69084 29854 ft 468 kts 24°
2026-05-04 13:46 30.16525 113.70567 29973 ft 469 kts 24°
2026-05-04 13:46 30.19538 113.72076 30092 ft 470 kts 23°
2026-05-04 13:46 30.22539 113.73579 30206 ft 471 kts 23°
2026-05-04 13:46 30.25513 113.75069 30316 ft 471 kts 23°
2026-05-04 13:47 30.28539 113.76585 30426 ft 472 kts 23°
2026-05-04 13:47 30.31551 113.78095 30529 ft 473 kts 23°
2026-05-04 13:47 30.37558 113.81110 30727 ft 474 kts 23°
2026-05-04 13:48 30.43601 113.84147 30915 ft 476 kts 23°
2026-05-04 13:48 30.49666 113.87199 31092 ft 477 kts 23°
2026-05-04 13:49 30.55744 113.90265 31261 ft 478 kts 23°
2026-05-04 13:49 30.58769 113.91791 31365 ft 478 kts 23°
2026-05-04 13:49 30.61825 113.93334 31488 ft 478 kts 23°
2026-05-04 13:50 30.64841 113.94849 31607 ft 477 kts 23°
2026-05-04 13:50 30.67903 113.96323 31721 ft 477 kts 22°
2026-05-04 13:50 30.70909 113.97845 31826 ft 477 kts 25°
2026-05-04 13:50 30.73910 113.99575 31927 ft 477 kts 28°
2026-05-04 13:51 30.79519 114.03486 32119 ft 476 kts 34°
2026-05-04 13:51 30.84802 114.08122 32305 ft 476 kts 40°
2026-05-04 13:52 30.89651 114.13397 32482 ft 475 kts 46°
2026-05-04 13:52 30.91860 114.16209 32566 ft 475 kts 49°
2026-05-04 13:53 30.95941 114.22302 32728 ft 475 kts 55°
2026-05-04 13:53 30.99446 114.28848 32882 ft 474 kts 61°
2026-05-04 13:54 31.02340 114.35767 33027 ft 474 kts 67°
2026-05-04 13:54 31.03553 114.39359 33096 ft 474 kts 70°
2026-05-04 13:54 31.05473 114.46665 33228 ft 473 kts 76°
2026-05-04 13:55 31.06191 114.50414 33292 ft 473 kts 79°
2026-05-04 13:55 31.07118 114.57977 33413 ft 473 kts 85°
2026-05-04 13:55 31.07329 114.61795 33471 ft 473 kts 88°
2026-05-04 13:56 31.07245 114.69441 33582 ft 473 kts 94°
2026-05-04 13:57 31.05981 114.80809 33608 ft 472 kts 98°
2026-05-04 13:58 30.99858 114.93803 33113 ft 473 kts 144°
2026-05-04 13:58 30.94117 114.97585 32613 ft 474 kts 151°
2026-05-04 13:58 30.91442 114.99790 32351 ft 475 kts 136°
2026-05-04 13:59 30.89306 115.02709 32105 ft 475 kts 123°
2026-05-04 13:59 30.87776 115.06067 31860 ft 476 kts 111°
2026-05-04 13:59 30.86649 115.13570 31366 ft 477 kts 86°
2026-05-04 14:00 30.87091 115.17230 31146 ft 477 kts 75°
2026-05-04 14:00 30.90000 115.24122 31095 ft 477 kts 50°
2026-05-04 14:00 30.92271 115.26820 31093 ft 477 kts 38°
2026-05-04 14:01 30.94924 115.28879 31092 ft 477 kts 26°
2026-05-04 14:01 30.98036 115.30311 31090 ft 477 kts 14°
2026-05-04 14:01 31.04613 115.30965 31094 ft 477 kts
2026-05-04 14:02 31.07902 115.31337 31085 ft 477 kts 12°
2026-05-04 14:02 31.11059 115.32584 31087 ft 477 kts 27°
2026-05-04 14:02 31.13752 115.34734 31092 ft 477 kts 43°
2026-05-04 14:02 31.15859 115.37708 31095 ft 477 kts 59°
2026-05-04 14:03 31.17272 115.41224 31106 ft 477 kts 68°
2026-05-04 14:03 31.19581 115.48454 31094 ft 477 kts 70°
2026-05-04 14:04 31.23019 115.59328 31091 ft 477 kts 69°
2026-05-04 14:04 31.25339 115.66575 31090 ft 477 kts 70°
2026-05-04 14:05 31.28728 115.77200 31090 ft 477 kts 70°
2026-05-04 14:06 31.31058 115.84499 31090 ft 477 kts 70°
2026-05-04 14:06 31.33372 115.91702 31090 ft 477 kts 69°
2026-05-04 14:07 31.35739 115.98926 31090 ft 477 kts 69°
2026-05-04 14:07 31.37447 116.05039 31088 ft 477 kts 79°
2026-05-04 14:07 31.37785 116.10194 31092 ft 477 kts 91°
2026-05-04 14:08 31.37649 116.14071 31093 ft 477 kts 93°
2026-05-04 14:08 31.37267 116.21777 31091 ft 477 kts 93°
2026-05-04 14:09 31.36717 116.33423 31090 ft 477 kts 93°
2026-05-04 14:10 31.36197 116.45004 31090 ft 477 kts 93°
2026-05-04 14:10 31.35850 116.52699 31090 ft 477 kts 92°
2026-05-04 14:11 31.35495 116.60479 31090 ft 477 kts 92°
2026-05-04 14:11 31.34963 116.71984 31090 ft 477 kts 93°
2026-05-04 14:12 31.34602 116.79689 31090 ft 477 kts 93°
2026-05-04 14:13 31.34047 116.91316 31090 ft 477 kts 93°
2026-05-04 14:13 31.33670 116.99058 31090 ft 477 kts 93°
2026-05-04 14:14 31.33291 117.06772 31090 ft 477 kts 93°
2026-05-04 14:14 31.32711 117.18387 31090 ft 477 kts 93°
2026-05-04 14:15 31.31990 117.32539 31090 ft 477 kts 93°
2026-05-04 14:16 31.31319 117.45459 31090 ft 477 kts 93°
2026-05-04 14:17 31.30706 117.57039 31091 ft 477 kts 93°
2026-05-04 14:18 31.30088 117.68533 31090 ft 477 kts 94°
2026-05-04 14:18 31.29667 117.76266 30787 ft 475 kts 94°
2026-05-04 14:19 31.29316 117.82642 30370 ft 472 kts 94°
2026-05-04 14:19 31.29035 117.87694 30038 ft 469 kts 94°
2026-05-04 14:19 31.28894 117.90214 29872 ft 468 kts 94°
2026-05-04 14:19 31.28682 117.93996 29622 ft 466 kts 94°
2026-05-04 14:20 31.28396 117.99060 29286 ft 464 kts 94°
2026-05-04 14:20 31.28256 118.01540 29120 ft 463 kts 94°
2026-05-04 14:20 31.27972 118.06515 28787 ft 460 kts 94°
2026-05-04 14:21 31.27543 118.13967 28285 ft 457 kts 94°
2026-05-04 14:21 31.27331 118.17633 28037 ft 455 kts 94°
2026-05-04 14:21 31.27189 118.20075 27871 ft 454 kts 94°
2026-05-04 14:21 31.26972 118.23778 27618 ft 452 kts 94°
2026-05-04 14:22 31.26687 118.28638 27286 ft 450 kts 94°
2026-05-04 14:22 31.26474 118.32238 27038 ft 448 kts 94°
2026-05-04 14:22 31.26259 118.35855 26788 ft 446 kts 94°
2026-05-04 14:22 31.26115 118.38266 26646 ft 445 kts 94°
2026-05-04 14:23 31.25610 118.46688 26533 ft 446 kts 94°
2026-05-04 14:23 31.25464 118.49094 26357 ft 444 kts 94°
2026-05-04 14:23 31.25246 118.52684 26108 ft 442 kts 94°
2026-05-04 14:24 31.24957 118.57422 25776 ft 440 kts 94°
2026-05-04 14:24 31.24811 118.59793 25609 ft 439 kts 94°
2026-05-04 14:24 31.24521 118.64494 25277 ft 436 kts 94°
2026-05-04 14:24 31.24303 118.68031 25026 ft 435 kts 94°
2026-05-04 14:25 31.24084 118.71559 24775 ft 433 kts 94°
2026-05-04 14:25 31.23649 118.78513 24276 ft 430 kts 94°
2026-05-04 14:25 31.23432 118.81969 24027 ft 428 kts 94°
2026-05-04 14:26 31.23211 118.85465 23774 ft 426 kts 94°
2026-05-04 14:26 31.22992 118.88905 23481 ft 426 kts 94°
2026-05-04 14:26 31.22774 118.92316 22833 ft 424 kts 94°
2026-05-04 14:26 31.22555 118.95721 22180 ft 417 kts 94°
2026-05-04 14:27 31.22338 118.99087 21525 ft 411 kts 94°
2026-05-04 14:27 31.22123 119.02412 20971 ft 409 kts 94°
2026-05-04 14:27 31.21909 119.05698 20719 ft 404 kts 94°
2026-05-04 14:27 31.21696 119.08968 20699 ft 406 kts 94°
2026-05-04 14:28 31.21482 119.12238 20695 ft 407 kts 94°
2026-05-04 14:28 31.21264 119.15546 20694 ft 407 kts 94°
2026-05-04 14:28 31.21045 119.18848 20693 ft 407 kts 94°
2026-05-04 14:28 31.20828 119.22121 20693 ft 407 kts 94°
2026-05-04 14:29 31.20388 119.28706 20693 ft 407 kts 94°
2026-05-04 14:29 31.19861 119.35317 20681 ft 407 kts 103°
2026-05-04 14:30 31.18905 119.38377 20687 ft 407 kts 119°
2026-05-04 14:30 31.17219 119.41016 20690 ft 407 kts 136°
2026-05-04 14:30 31.12746 119.45071 20696 ft 407 kts 144°
2026-05-04 14:31 31.10474 119.47002 20694 ft 407 kts 143°
2026-05-04 14:31 31.05911 119.50922 20693 ft 407 kts 143°
2026-05-04 14:32 31.01387 119.54845 20693 ft 407 kts 143°
2026-05-04 14:32 30.99108 119.56827 20693 ft 407 kts 143°
2026-05-04 14:32 30.96841 119.58798 20527 ft 407 kts 143°
2026-05-04 14:32 30.94579 119.60765 20252 ft 405 kts 143°
2026-05-04 14:33 30.92334 119.62716 19761 ft 405 kts 143°
2026-05-04 14:33 30.90090 119.64665 19261 ft 404 kts 143°
2026-05-04 14:33 30.88749 119.65829 18961 ft 403 kts 143°
2026-05-04 14:33 30.88734 119.65842 18958 ft 403 kts 143°
2026-05-04 14:34 30.86176 119.68063 18386 ft 402 kts 143°
2026-05-04 14:34 30.83948 119.69997 17886 ft 401 kts 143°
2026-05-04 14:34 30.81730 119.71921 17387 ft 400 kts 143°
2026-05-04 14:35 30.79510 119.73844 16887 ft 399 kts 143°
2026-05-04 14:35 30.77290 119.75766 16385 ft 398 kts 143°
2026-05-04 14:35 30.75081 119.77677 15884 ft 397 kts 143°
2026-05-04 14:35 30.72972 119.79675 15374 ft 396 kts 134°
2026-05-04 14:36 30.71346 119.82223 14872 ft 394 kts 117°
2026-05-04 14:36 30.70325 119.85186 14378 ft 392 kts 108°
2026-05-04 14:36 30.69533 119.88175 13882 ft 391 kts 107°
2026-05-04 14:36 30.68752 119.91201 13379 ft 390 kts 107°
2026-05-04 14:37 30.67953 119.94223 12874 ft 389 kts 107°
2026-05-04 14:37 30.67141 119.97196 12371 ft 387 kts 110°
2026-05-04 14:37 30.65836 119.99897 11844 ft 385 kts 131°
2026-05-04 14:37 30.63840 120.01897 11362 ft 383 kts 144°
2026-05-04 14:38 30.61652 120.03694 10855 ft 382 kts 145°
2026-05-04 14:38 30.59491 120.05443 10350 ft 377 kts 145°
2026-05-04 14:38 30.57406 120.07148 9737 ft 364 kts 144°
2026-05-04 14:38 30.55380 120.08824 9029 ft 351 kts 144°
2026-05-04 14:39 30.53474 120.10415 8624 ft 331 kts 144°
2026-05-04 14:39 30.51671 120.11922 8346 ft 311 kts 144°
2026-05-04 14:39 30.49952 120.13357 8089 ft 300 kts 145°
2026-05-04 14:40 30.46497 120.15652 7634 ft 274 kts 156°
2026-05-04 14:40 30.44731 120.16544 7551 ft 277 kts 157°
2026-05-04 14:40 30.42981 120.17416 7246 ft 276 kts 157°
2026-05-04 14:40 30.41213 120.18295 6959 ft 274 kts 157°
2026-05-04 14:41 30.39498 120.19151 6899 ft 270 kts 157°
2026-05-04 14:41 30.37749 120.20026 6890 ft 272 kts 157°
2026-05-04 14:41 30.34268 120.21769 6285 ft 276 kts 156°
2026-05-04 14:42 30.30898 120.23621 5893 ft 261 kts 153°
2026-05-04 14:42 30.29349 120.24541 5886 ft 242 kts 152°
2026-05-04 14:42 30.28051 120.25697 5882 ft 238 kts 129°
2026-05-04 14:43 30.27224 120.27393 5885 ft 247 kts 107°
2026-05-04 14:43 30.27040 120.29369 5890 ft 256 kts 83°
2026-05-04 14:43 30.27578 120.31358 5892 ft 263 kts 64°
2026-05-04 14:43 30.28430 120.33247 5890 ft 263 kts 62°
2026-05-04 14:44 30.29299 120.35104 5889 ft 263 kts 62°
2026-05-04 14:44 30.30153 120.36957 5888 ft 263 kts 63°
2026-05-04 14:44 30.31008 120.38846 5887 ft 263 kts 63°
2026-05-04 14:44 30.31843 120.40713 5883 ft 260 kts 63°
2026-05-04 14:45 30.32654 120.42538 5880 ft 247 kts 63°
2026-05-04 14:45 30.33428 120.44286 5887 ft 241 kts 63°
2026-05-04 14:45 30.34189 120.46003 5886 ft 241 kts 63°
2026-05-04 14:45 30.34949 120.47724 5886 ft 242 kts 63°
2026-05-04 14:46 30.35728 120.49484 5877 ft 242 kts 63°
2026-05-04 14:46 30.36493 120.51216 5533 ft 247 kts 63°
2026-05-04 14:46 30.37275 120.52988 5160 ft 250 kts 63°
2026-05-04 14:46 30.38070 120.54791 4911 ft 247 kts 63°
2026-05-04 14:47 30.38832 120.56518 4891 ft 237 kts 63°
2026-05-04 14:47 30.39582 120.58218 4891 ft 238 kts 64°
2026-05-04 14:47 30.40339 120.59936 4889 ft 237 kts 64°
2026-05-04 14:47 30.41091 120.61646 4619 ft 241 kts 63°
2026-05-04 14:48 30.41834 120.63405 4239 ft 245 kts 71°
2026-05-04 14:48 30.41941 120.65324 3837 ft 245 kts 109°
2026-05-04 14:48 30.41000 120.66915 3479 ft 242 kts 147°
2026-05-04 14:48 30.39506 120.67715 3373 ft 231 kts 161°
2026-05-04 14:49 30.38010 120.68328 3244 ft 223 kts 160°
2026-05-04 14:49 30.36556 120.68808 3106 ft 215 kts 180°
2026-05-04 14:49 30.35231 120.68253 2984 ft 199 kts 225°
2026-05-04 14:49 30.34634 120.66876 3023 ft 193 kts 255°
2026-05-04 14:50 30.34334 120.65406 2992 ft 183 kts 254°
2026-05-04 14:50 30.33945 120.64023 2986 ft 176 kts 248°
2026-05-04 14:50 30.33479 120.62736 2983 ft 173 kts 245°
2026-05-04 14:50 30.32973 120.61479 2989 ft 172 kts 243°
2026-05-04 14:51 30.32440 120.60226 2985 ft 172 kts 242°
2026-05-04 14:51 30.31906 120.59010 2845 ft 173 kts 242°
2026-05-04 14:51 30.31355 120.57771 2617 ft 172 kts 242°
2026-05-04 14:51 30.30814 120.56561 2395 ft 171 kts 242°
2026-05-04 14:52 30.30271 120.55347 2173 ft 170 kts 242°
2026-05-04 14:52 30.29727 120.54127 1948 ft 170 kts 242°
2026-05-04 14:52 30.29189 120.52922 1727 ft 169 kts 242°
2026-05-04 14:52 30.28645 120.51699 1501 ft 169 kts 242°
2026-05-04 14:53 30.28110 120.50497 1281 ft 168 kts 242°
2026-05-04 14:53 30.27586 120.49317 1066 ft 167 kts 242°
2026-05-04 14:53 30.27064 120.48142 851 ft 167 kts 242°
2026-05-04 14:53 30.26534 120.46948 624 ft 166 kts 242°
2026-05-04 14:54 30.26016 120.45760 434 ft 166 kts 242°
2026-05-04 14:54 30.25492 120.44589 191 ft 163 kts 242°
2026-05-04 14:54 30.24981 120.43442 35 ft 152 kts 242°
2026-05-04 14:54 30.24577 120.42547 33 ft 99 kts 243°
2026-05-04 14:55 30.24344 120.42021 33 ft 48 kts 243°
2026-05-04 14:55 30.24204 120.41707 33 ft 43 kts 243°
2026-05-04 14:55 30.24072 120.41412 33 ft 37 kts 244°
2026-05-04 14:55 30.23955 120.41145 33 ft 36 kts 243°
2026-05-04 14:56 30.23837 120.41036 33 ft 2 kts 161°
2026-05-04 14:56 30.23832 120.41042 33 ft 1 kts 140°
2026-05-04 14:56 30.23817 120.41065 33 ft 5 kts 126°
2026-05-04 14:56 30.23797 120.41093 33 ft 0 kts 133°
2026-05-04 14:57 30.23792 120.41099 33 ft 1 kts 133°
2026-05-04 14:57 30.23785 120.41107 33 ft 1 kts 138°
2026-05-04 14:57 30.23776 120.41115 33 ft 1 kts 147°
2026-05-04 14:57 30.23766 120.41122 33 ft 1 kts 154°
2026-05-04 14:58 30.23748 120.41131 33 ft 4 kts 156°
2026-05-04 14:58 30.23715 120.41148 33 ft 5 kts 152°
2026-05-04 14:58 30.23693 120.41181 33 ft 5 kts 110°
2026-05-04 14:58 30.23695 120.41225 33 ft 5 kts 66°
2026-05-04 14:59 30.23713 120.41266 33 ft 5 kts 63°
2026-05-04 14:59 30.23733 120.41309 33 ft 6 kts 63°
2026-05-04 14:59 30.23775 120.41404 33 ft 7 kts 63°
2026-05-04 15:00 30.23798 120.41456 33 ft 7 kts 63°
2026-05-04 15:00 30.23822 120.41511 33 ft 7 kts 63°
2026-05-04 15:00 30.23847 120.41567 33 ft 8 kts 63°
2026-05-04 15:01 30.23902 120.41689 33 ft 8 kts 63°
2026-05-04 15:01 30.23930 120.41754 33 ft 9 kts 63°
2026-05-04 15:01 30.23961 120.41822 33 ft 9 kts 63°
2026-05-04 15:01 30.23992 120.41893 33 ft 10 kts 63°
2026-05-04 15:02 30.24026 120.41966 33 ft 10 kts 63°
2026-05-04 15:02 30.24059 120.42041 33 ft 10 kts 63°
2026-05-04 15:02 30.24092 120.42120 33 ft 10 kts 76°
2026-05-04 15:02 30.24080 120.42170 33 ft 5 kts 122°
2026-05-04 15:03 30.24061 120.42207 33 ft 5 kts 120°
2026-05-04 15:03 30.24039 120.42245 33 ft 5 kts 130°
2026-05-04 15:03 30.24011 120.42281 33 ft 6 kts 136°
2026-05-04 15:03 30.23996 120.42298 33 ft 2 kts 135°
2026-05-04 15:04 30.23984 120.42310 33 ft 2 kts 141°
2026-05-04 15:04 30.23982 120.42312 33 ft 0 kts 142°